Natchez, MS

5:19 AM CDT on June 27, 2017 (GMT -0500)
Hardy-Anders-Adams County

Weather History for KHEZ - April, 2014

Change the Weather History Date:

Tuesday, April 22, 2014

  Actual Average Record
Temperature  
Mean Temperature 68 °F -  
Max Temperature 77 °F 78 °F 87 °F (1954)
Min Temperature 60 °F 56 °F 38 °F (1931)
Cooling Degree Days 4    
Growing Degree Days 18 (Base 50)    
Moisture  
Dew Point 61 °F    
Average Humidity 79    
Maximum Humidity 94    
Minimum Humidity 61    
Precipitation  
Precipitation 0.00 in - - ()
Sea Level Pressure  
Sea Level Pressure 29.95 in    
Wind  
Wind Speed 6 mph (WNW)    
Max Wind Speed 13 mph    
Max Gust Speed 16 mph    
Visibility 10 miles    
Events      
Averages and records for this station are not official NWS values.
T = Trace of Precipitation, MM = Missing Value Source: NWS Daily Summary

Daily Weather History Graph

Daily Weather History Graph

Search for Another Location

Airport or City:

Trip Planner

Search our weather history database for the weather conditions in past years. The results will help you decide how hot, cold, wet, or windy it might be!

Date:

Astronomy

Apr. 22, 2014 Rise Set
Actual Time 6:28 AM CDT 7:38 PM CDT
Civil Twilight 6:03 AM CDT 8:04 PM CDT
Nautical Twilight 5:33 AM CDT 8:34 PM CDT
Astronomical Twilight 5:02 AM CDT 9:05 PM CDT
Moon 1:52 AM CDT (4/22) 1:05 PM CDT (4/22)
Length of Visible Light 14h 00m
Length of Day
13h 09m
Last Quarter, 46% of the Moon is Illuminated
Apr 22
Last Quarter
Apr 29
New
May 6
First Quarter
May 14
Full
May 21
Last Quarter

Hourly Weather History & Observations

Time (CDT) Temp. Dew Point Humidity Pressure Visibility Wind Dir Wind Speed Gust Speed Precip Events Conditions
12:15 AM 66.2 °F 57.2 °F 73% 29.98 in 10.0 mi South 9.2 mph - N/A   Clear
12:35 AM 66.2 °F 57.2 °F 73% 29.97 in 10.0 mi SSW 8.1 mph - N/A   Clear
12:55 AM 66.2 °F 57.2 °F 73% 29.97 in 10.0 mi SW 5.8 mph - N/A   Clear
1:15 AM 66.2 °F 57.2 °F 73% 29.97 in 10.0 mi SW 5.8 mph - N/A   Clear
1:35 AM 66.2 °F 57.2 °F 73% 29.97 in 10.0 mi SW 5.8 mph - N/A   Clear
1:55 AM 64.4 °F 57.2 °F 77% 29.96 in 10.0 mi SSW 8.1 mph - N/A   Clear
2:15 AM 64.4 °F 57.2 °F 77% 29.95 in 10.0 mi SSW 6.9 mph - N/A   Clear
2:35 AM 64.4 °F 57.2 °F 77% 29.95 in 10.0 mi SSW 4.6 mph - N/A   Clear
2:55 AM 64.4 °F 57.2 °F 77% 29.95 in 10.0 mi SSW 5.8 mph - N/A   Clear
3:15 AM 62.6 °F 57.2 °F 82% 29.95 in 10.0 mi SSW 5.8 mph - N/A   Clear
3:35 AM 64.4 °F 59.0 °F 83% 29.94 in 10.0 mi SSW 6.9 mph - N/A   Scattered Clouds
3:55 AM 64.4 °F 59.0 °F 83% 29.95 in 10.0 mi SSW 3.5 mph - N/A   Mostly Cloudy
4:15 AM 64.4 °F 59.0 °F 83% 29.95 in 10.0 mi SW 8.1 mph - N/A   Mostly Cloudy
4:35 AM 64.4 °F 60.8 °F 88% 29.93 in 10.0 mi South 5.8 mph - N/A   Mostly Cloudy
5:15 AM 64.4 °F 60.8 °F 88% 29.95 in 10.0 mi SW 6.9 mph - N/A   Overcast
5:35 AM 64.4 °F 60.8 °F 88% 29.95 in 10.0 mi SW 9.2 mph - N/A   Overcast
5:55 AM 64.4 °F 60.8 °F 88% 29.94 in 10.0 mi WSW 8.1 mph - N/A   Overcast
6:15 AM 64.4 °F 60.8 °F 88% 29.93 in 10.0 mi SW 4.6 mph - N/A   Overcast
6:35 AM 64.4 °F 60.8 °F 88% 29.93 in 10.0 mi WSW 6.9 mph - N/A   Overcast
6:55 AM 64.4 °F 60.8 °F 88% 29.95 in 10.0 mi SW 9.2 mph - N/A   Overcast
7:15 AM 64.4 °F 60.8 °F 88% 29.96 in 10.0 mi SW 5.8 mph - N/A   Overcast
7:35 AM 64.4 °F 62.6 °F 94% 29.96 in 10.0 mi WSW 5.8 mph - N/A   Overcast
7:55 AM 64.4 °F 62.6 °F 94% 29.96 in 10.0 mi West 8.1 mph - N/A   Overcast
8:15 AM 64.4 °F 62.6 °F 94% 29.96 in 9.0 mi West 6.9 mph - N/A   Overcast
8:35 AM 64.4 °F 62.6 °F 94% 29.96 in 8.0 mi SW 5.8 mph - N/A   Overcast
8:55 AM 66.2 °F 62.6 °F 88% 29.97 in 9.0 mi WSW 8.1 mph - N/A   Overcast
9:15 AM 66.2 °F 62.6 °F 88% 29.96 in 10.0 mi WSW 4.6 mph - N/A   Overcast
9:35 AM 66.2 °F 62.6 °F 88% 29.97 in 9.0 mi WSW 5.8 mph - N/A   Overcast
9:55 AM 66.2 °F 62.6 °F 88% 29.97 in 8.0 mi WNW 4.6 mph - N/A   Overcast
10:15 AM 66.2 °F 62.6 °F 88% 29.97 in 10.0 mi WNW 8.1 mph - N/A   Overcast
10:35 AM 66.2 °F 62.6 °F 88% 29.97 in 7.0 mi NW 5.8 mph - N/A   Overcast
10:55 AM 66.2 °F 62.6 °F 88% 29.98 in 10.0 mi NNW 8.1 mph - N/A   Overcast
11:15 AM 68.0 °F 62.6 °F 83% 29.98 in 10.0 mi NNW 8.1 mph - N/A   Overcast
11:35 AM 69.8 °F 62.6 °F 78% 29.98 in 10.0 mi North 12.7 mph 16.1 mph N/A   Overcast
11:55 AM 69.8 °F 62.6 °F 78% 29.98 in 10.0 mi North 8.1 mph - N/A   Overcast
12:15 PM 69.8 °F 62.6 °F 78% 29.97 in 10.0 mi North 8.1 mph - N/A   Overcast
12:35 PM 69.8 °F 62.6 °F 78% 29.97 in 9.0 mi NNW 8.1 mph - N/A   Mostly Cloudy
12:55 PM 69.8 °F 60.8 °F 73% 29.97 in 10.0 mi NNW 5.8 mph - N/A   Mostly Cloudy
1:15 PM 69.8 °F 62.6 °F 78% 29.96 in 10.0 mi North 5.8 mph - N/A   Overcast
1:35 PM 71.6 °F 62.6 °F 73% 29.96 in 10.0 mi NNE 5.8 mph - N/A   Mostly Cloudy
1:55 PM 71.6 °F 62.6 °F 73% 29.95 in 10.0 mi NNE 5.8 mph - N/A   Mostly Cloudy
2:15 PM 73.4 °F 62.6 °F 69% 29.95 in 10.0 mi North 6.9 mph - N/A   Overcast
2:35 PM 73.4 °F 62.6 °F 69% 29.95 in 10.0 mi NNW 3.5 mph - N/A   Mostly Cloudy
2:55 PM 73.4 °F 62.6 °F 69% 29.94 in 10.0 mi North 5.8 mph - N/A   Mostly Cloudy
3:15 PM 73.4 °F 60.8 °F 65% 29.94 in 10.0 mi NNE 3.5 mph - N/A   Overcast
3:35 PM 75.2 °F 62.6 °F 65% 29.93 in 10.0 mi NW 5.8 mph - N/A   Overcast
3:55 PM 75.2 °F 62.6 °F 65% 29.93 in 10.0 mi NNW 8.1 mph - N/A   Overcast
4:15 PM 75.2 °F 62.6 °F 65% 29.92 in 10.0 mi North 8.1 mph - N/A   Mostly Cloudy
4:35 PM 77.0 °F 62.6 °F 61% 29.92 in 10.0 mi NW 5.8 mph - N/A   Mostly Cloudy
4:55 PM 75.2 °F 60.8 °F 61% 29.92 in 10.0 mi North 8.1 mph - N/A   Scattered Clouds
5:15 PM 73.4 °F 60.8 °F 65% 29.92 in 10.0 mi NNE 6.9 mph - N/A   Scattered Clouds
5:35 PM 75.2 °F 62.6 °F 65% 29.91 in 10.0 mi North 5.8 mph - N/A   Clear
5:55 PM 75.2 °F 60.8 °F 61% 29.91 in 10.0 mi NNE 8.1 mph - N/A   Clear
6:15 PM 75.2 °F 60.8 °F 61% 29.90 in 10.0 mi North 5.8 mph - N/A   Clear
6:35 PM 75.2 °F 60.8 °F 61% 29.90 in 10.0 mi NNW 3.5 mph - N/A   Partly Cloudy
6:55 PM 73.4 °F 60.8 °F 65% 29.90 in 10.0 mi NNW 3.5 mph - N/A   Partly Cloudy
7:15 PM 73.4 °F 60.8 °F 65% 29.90 in 10.0 mi Calm Calm - N/A   Clear
7:35 PM 69.8 °F 60.8 °F 73% 29.91 in 10.0 mi Calm Calm - N/A   Clear
7:55 PM 69.8 °F 60.8 °F 73% 29.92 in 10.0 mi Calm Calm - N/A   Clear
8:15 PM 66.2 °F 60.8 °F 83% 29.93 in 10.0 mi Calm Calm - N/A   Mostly Cloudy
8:35 PM 66.2 °F 60.8 °F 83% 29.93 in 7.0 mi Calm Calm - N/A   Mostly Cloudy
8:55 PM 66.2 °F 60.8 °F 83% 29.94 in 10.0 mi Calm Calm - N/A   Partly Cloudy
9:15 PM 64.4 °F 60.8 °F 88% 29.94 in 10.0 mi Calm Calm - N/A   Partly Cloudy
9:35 PM 64.4 °F 59.0 °F 83% 29.95 in 10.0 mi Calm Calm - N/A   Clear
9:55 PM 62.6 °F 60.8 °F 94% 29.96 in 10.0 mi Calm Calm - N/A   Clear
10:15 PM 62.6 °F 59.0 °F 88% 29.96 in 10.0 mi Calm Calm - N/A   Clear
10:35 PM 62.6 °F 59.0 °F 88% 29.96 in 10.0 mi Calm Calm - N/A   Clear
10:55 PM 62.6 °F 57.2 °F 82% 29.96 in 10.0 mi Calm Calm - N/A   Clear
11:15 PM 60.8 °F 57.2 °F 88% 29.96 in 10.0 mi Calm Calm - N/A   Clear
11:35 PM 60.8 °F 57.2 °F 88% 29.96 in 10.0 mi Calm Calm - N/A   Clear
11:55 PM 60.8 °F 57.2 °F 88% 29.96 in 10.0 mi Calm Calm - N/A   Clear